Theta_e
316 316 324 327 324 326 323 323 325 340 345 347 348 346 342 342 342 334 333 339 341 337 335 335 333 329 327 323 322 321 321 320
317 319 319 322 323 321 321 323 331 341 346 348 348 347 348 346 345 334 332 336 340 338 337 336 335 330 323 321 321 322 322 321
317 318 320 320 322 322 320 320 328 346 347 348 348 347 348 348 345 334 333 337 340 338 337 337 337 331 325 321 321 323 323 322
317 318 320 320 321 320 318 320 342 346 347 348 347 346 347 346 342 334 332 336 340 339 338 337 338 335 328 325 322 322 323 324
315 318 318 320 319 318 318 318 329 347 344 346 346 348 347 345 340 334 333 334 339 339 338 338 339 339 336 332 329 324 322 322
314 316 317 319 319 319 318 320 336 343 340 344 346 347 346 344 339 335 333 332 333 336 337 337 337 339 340 339 336 333 329 325
314 315 317 317 317 319 320 321 327 336 335 342 348 348 347 344 339 337 333 331 333 334 336 337 337 337 339 341 341 340 337 335
313 314 316 316 316 318 318 321 325 328 335 345 347 348 347 347 344 338 333 332 331 332 334 336 338 338 338 340 341 341 341 340
315 316 317 317 316 318 318 319 321 323 327 342 348 348 347 348 348 346 340 337 336 332 333 334 336 338 339 338 339 340 341 342
314 315 315 315 316 316 318 319 320 320 320 323 341 348 349 348 348 348 345 342 342 337 335 334 333 335 335 334 334 336 335 338
314 314 315 315 314 315 316 318 319 319 320 320 320 322 329 336 345 348 348 347 346 344 341 340 338 332 332 333 333 331 331 331
313 313 313 313 314 314 316 318 319 319 319 320 319 319 319 320 321 324 330 340 345 347 347 345 344 341 332 332 332 332 331 330
311 313 313 314 312 312 317 318 318 318 319 319 319 319 319 319 319 319 319 320 321 325 342 346 346 346 336 331 333 333 333 333
314 312 314 315 313 315 318 317 317 318 318 319 319 318 318 318 319 319 319 319 322 324 325 329 339 346 342 333 333 334 336 341
315 313 314 313 313 314 317 316 316 317 318 318 318 318 318 319 319 319 319 319 322 323 325 329 335 347 341 337 339 342 342 341
315 316 313 314 313 313 316 315 316 317 316 317 318 319 319 319 318 319 319 319 321 324 329 333 341 346 340 343 344 344 342 342
314 314 314 314 313 312 314 315 313 315 315 317 318 319 319 319 319 319 319 319 320 325 327 327 339 343 345 341 345 344 343 338
313 313 313 313 313 312 312 314 315 315 316 317 319 319 319 319 319 319 319 319 319 321 323 326 330 341 344 343 344 345 343 342
314 314 313 314 313 314 314 314 316 317 316 316 317 318 319 318 318 319 319 319 319 320 322 323 327 336 342 341 344 339 331 322
315 314 314 313 313 312 313 312 312 315 316 319 321 320 319 319 319 319 319 319 321 322 327 335 341 342 343 343 335 321 319 319
Wind_Speed
4 3 6 5 4 2 7 22 11 3 6 3 2 7 22 18 18 25 26 27 27 26 24 21 19 18 18 17 16 16 16 17
4 5 5 6 4 3 10 10 2 6 6 4 3 14 11 19 18 28 26 28 27 25 23 21 19 17 17 16 17 17 18 18
1 4 4 3 7 8 4 7 7 2 6 6 11 7 9 15 17 27 26 28 28 26 23 22 20 18 17 17 17 18 18 18
3 4 3 2 6 4 3 8 5 1 11 8 12 10 15 14 17 25 25 28 27 26 24 22 21 19 18 17 17 18 18 18
3 3 1 2 4 3 2 8 5 9 2 5 15 18 16 15 19 25 25 25 26 26 25 22 21 20 18 17 16 16 17 17
5 3 4 2 1 6 2 4 4 10 4 6 22 23 20 20 24 23 23 23 23 24 24 24 23 21 19 18 17 16 15 15
5 6 4 1 6 8 11 4 3 3 4 7 24 25 22 21 24 26 25 24 24 23 24 24 24 23 22 20 19 18 17 15
7 5 2 8 3 9 6 6 7 9 6 13 21 21 20 20 21 23 24 24 24 25 25 25 26 25 24 23 23 22 21 20
5 10 2 2 11 5 8 2 5 7 8 11 18 19 20 19 19 18 21 23 22 23 24 26 27 26 26 26 25 25 24 23
6 5 7 3 3 7 6 6 5 0 4 5 11 20 24 24 24 22 22 23 23 24 24 24 25 26 26 26 27 27 25 25
25 23 18 17 10 9 12 17 16 7 6 9 9 10 12 17 21 23 24 23 23 24 25 24 23 24 26 27 27 24 23 22
12 16 8 6 13 5 8 15 13 14 12 10 10 11 11 12 11 12 15 21 25 27 27 27 26 24 27 27 25 21 20 18
7 10 6 10 7 7 21 20 19 17 16 16 15 16 16 14 12 12 13 14 17 19 26 29 30 28 28 25 22 20 19 17
3 9 6 14 6 4 12 17 17 19 20 20 19 19 18 18 17 16 14 17 19 21 22 24 27 29 27 22 19 19 16 16
5 9 4 5 4 6 6 10 14 20 24 23 22 20 20 19 21 18 15 12 16 20 21 23 24 26 24 21 19 16 17 15
5 1 3 2 6 7 14 5 14 21 21 24 22 21 23 23 22 21 16 13 13 15 17 19 21 23 24 21 21 17 15 14
2 3 3 3 4 11 13 8 13 15 17 18 17 18 20 22 21 24 19 16 16 18 18 17 19 21 23 20 22 19 17 18
6 5 4 6 7 7 7 6 7 11 14 19 18 20 18 19 19 23 23 21 20 21 21 19 22 23 24 23 23 21 20 18
5 4 3 4 6 4 5 7 8 8 9 13 14 18 21 20 21 25 26 25 24 23 23 23 25 28 29 25 22 16 9 8
5 3 3 3 5 4 4 7 6 11 6 7 8 13 17 18 21 26 27 29 27 26 29 30 31 31 30 26 17 10 7 8
Wind_Direction
106 120 171 218 227 260 283 315 265 280 52 43 40 127 147 154 162 170 175 173 173 172 172 175 183 185 186 184 181 177 173 170
110 200 242 213 269 256 328 331 31 169 94 115 147 140 157 167 168 171 177 176 176 175 176 178 185 187 184 181 178 177 174 170
143 235 254 226 271 307 318 286 298 187 155 150 154 148 168 169 173 176 180 179 178 178 182 184 188 190 188 184 182 181 178 174
222 240 249 258 273 283 267 306 302 191 157 155 180 184 158 159 167 180 185 182 180 182 188 189 191 194 194 191 186 185 183 182
199 251 314 234 300 244 304 275 251 165 121 171 166 165 160 158 172 180 188 185 184 186 190 195 197 199 200 199 195 192 191 190
228 201 253 229 28 347 9 280 1 157 204 209 166 166 167 170 176 183 188 191 192 193 197 201 203 204 206 207 207 206 204 201
226 162 225 146 24 340 330 322 58 225 296 255 169 171 173 173 181 186 189 194 196 200 204 207 209 210 211 213 215 217 217 215
205 193 178 330 54 324 328 21 58 89 109 155 177 177 180 181 183 187 189 194 200 204 208 211 213 215 217 217 219 222 224 225
232 225 200 97 315 315 298 58 87 78 84 165 190 193 201 201 200 199 193 197 201 208 212 215 218 219 221 223 225 228 229 231
286 250 238 226 270 303 246 276 323 161 145 160 204 211 212 214 214 215 212 208 211 212 215 219 225 227 230 232 232 232 235 237
240 253 267 280 264 253 267 276 295 245 222 202 188 198 222 235 239 234 229 225 228 226 224 223 227 233 234 237 238 243 246 246
256 255 238 204 267 185 272 271 272 249 252 244 222 223 210 202 211 225 234 231 230 231 233 233 232 234 235 237 241 247 252 254
227 242 232 223 297 197 264 265 258 248 237 245 247 244 237 249 253 241 245 238 240 245 236 235 236 238 237 237 242 248 253 257
242 165 236 160 253 261 246 240 246 251 253 246 246 251 247 241 237 240 244 227 225 230 236 243 238 238 237 235 237 239 247 255
278 202 135 161 212 248 263 245 258 269 260 256 247 250 247 247 242 236 236 221 221 229 228 234 235 232 227 228 225 234 248 260
211 147 169 159 245 277 303 262 279 283 262 249 249 253 255 259 244 231 226 232 211 214 223 238 235 221 216 224 225 239 253 264
243 283 1 238 257 278 292 307 281 284 259 236 247 260 259 264 244 232 229 232 228 204 207 216 215 212 219 224 226 241 258 266
283 262 164 288 281 276 285 253 277 312 278 249 252 259 258 264 238 227 232 238 237 225 217 218 216 215 218 225 228 244 253 259
232 358 287 330 313 293 302 293 310 304 295 265 262 277 274 266 240 234 232 235 236 229 220 210 209 214 218 222 226 226 235 266
224 114 215 101 279 294 261 298 303 300 330 331 314 282 276 273 266 257 242 231 227 224 214 212 212 215 220 225 216 212 228 275